Time,TemperatureF,DewpointF,PressureIn,WindDirection,WindDirectionDegrees,WindSpeedMPH,WindSpeedGustMPH,Humidity,HourlyPrecipIn,Conditions,Clouds,dailyrainin,SoftwareType,DateUTC
2013-09-28 00:00:00,58.0,53.0,30.25,North,10,5.0,6.0,83,-99.99,,,-99.99,,2013-09-28 04:00:00,
2013-09-28 00:53:00,58.0,53.0,30.25,North,10,5.0,6.0,83,-99.99,,,-99.99,,2013-09-28 04:53:00,
2013-09-28 01:00:00,58.0,53.0,30.25,North,360,6.0,7.0,83,-99.99,,,-99.99,,2013-09-28 05:00:00,
2013-09-28 01:43:00,58.0,53.0,30.25,North,360,6.0,7.0,83,-99.99,,,-99.99,,2013-09-28 05:43:00,
2013-09-28 01:52:00,58.0,53.0,30.25,North,360,6.0,7.0,83,-99.99,,,-99.99,,2013-09-28 05:52:00,
2013-09-28 02:00:00,58.0,52.0,30.25,NNW,340,9.0,10.0,81,-99.99,,,-99.99,,2013-09-28 06:00:00,
2013-09-28 02:42:00,58.0,52.0,30.25,NNW,340,9.0,10.0,81,-99.99,,,-99.99,,2013-09-28 06:42:00,
2013-09-28 02:52:00,58.0,52.0,30.25,NNW,340,9.0,10.0,81,-99.99,,,-99.99,,2013-09-28 06:52:00,
2013-09-28 03:00:00,57.0,52.0,30.24,NNW,340,10.0,10.0,83,-99.99,,,-99.99,,2013-09-28 07:00:00,
2013-09-28 03:42:00,57.0,52.0,30.24,NNW,340,10.0,10.0,83,-99.99,,,-99.99,,2013-09-28 07:42:00,
2013-09-28 03:52:00,57.0,52.0,30.24,NNW,340,10.0,10.0,83,-99.99,,,-99.99,,2013-09-28 07:52:00,
2013-09-28 04:00:00,58.0,51.0,30.24,North,350,9.0,11.0,77,-99.99,,,-99.99,,2013-09-28 08:00:00,
2013-09-28 04:42:00,58.0,51.0,30.24,North,350,9.0,11.0,77,-99.99,,,-99.99,,2013-09-28 08:42:00,
2013-09-28 04:53:00,58.0,51.0,30.24,North,350,9.0,11.0,77,-99.99,,,-99.99,,2013-09-28 08:53:00,
2013-09-28 05:00:00,58.0,53.0,30.24,NNW,340,10.0,11.0,83,-99.99,,,-99.99,,2013-09-28 09:00:00,
2013-09-28 05:43:00,58.0,53.0,30.24,NNW,340,10.0,11.0,83,-99.99,,,-99.99,,2013-09-28 09:43:00,
2013-09-28 05:53:00,58.0,53.0,30.24,NNW,340,10.0,11.0,83,-99.99,,,-99.99,,2013-09-28 09:53:00,
2013-09-28 06:00:00,56.0,53.0,30.26,North,360,11.0,13.0,86,-99.99,,,-99.99,,2013-09-28 10:00:00,
2013-09-28 06:42:00,56.0,53.0,30.26,North,360,11.0,13.0,86,-99.99,,,-99.99,,2013-09-28 10:42:00,
2013-09-28 06:52:00,56.0,53.0,30.26,North,360,11.0,13.0,86,-99.99,,,-99.99,,2013-09-28 10:52:00,
2013-09-28 07:00:00,57.0,53.0,30.27,NNE,30,10.0,11.0,86,-99.99,,,-99.99,,2013-09-28 11:00:00,
2013-09-28 07:42:00,57.0,53.0,30.27,NNE,30,10.0,11.0,86,-99.99,,,-99.99,,2013-09-28 11:42:00,
2013-09-28 07:52:00,57.0,53.0,30.27,NNE,30,10.0,11.0,86,-99.99,,,-99.99,,2013-09-28 11:52:00,
2013-09-28 08:00:00,59.0,55.0,30.28,NNE,20,11.0,13.0,85,-99.99,,,-99.99,,2013-09-28 12:00:00,
2013-09-28 08:42:00,59.0,55.0,30.28,NNE,20,11.0,13.0,85,-99.99,,,-99.99,,2013-09-28 12:42:00,
2013-09-28 08:52:00,59.0,55.0,30.28,NNE,20,11.0,13.0,85,-99.99,,,-99.99,,2013-09-28 12:52:00,
2013-09-28 09:00:00,60.0,56.0,30.29,NNE,20,10.0,11.0,86,-99.99,,,-99.99,,2013-09-28 13:00:00,
2013-09-28 09:42:00,60.0,56.0,30.29,NNE,20,10.0,11.0,86,-99.99,,,-99.99,,2013-09-28 13:42:00,
2013-09-28 09:52:00,60.0,56.0,30.29,NNE,20,10.0,11.0,86,-99.99,,,-99.99,,2013-09-28 13:52:00,
2013-09-28 10:00:00,61.0,57.0,30.30,NNE,30,11.0,13.0,85,-99.99,,,-99.99,,2013-09-28 14:00:00,
2013-09-28 10:42:00,61.0,57.0,30.30,NNE,30,11.0,13.0,85,-99.99,,,-99.99,,2013-09-28 14:42:00,
2013-09-28 10:52:00,61.0,57.0,30.30,NNE,30,11.0,13.0,85,-99.99,,,-99.99,,2013-09-28 14:52:00,
2013-09-28 11:00:00,63.0,58.0,30.30,NNE,30,8.0,9.0,81,-99.99,,,-99.99,,2013-09-28 15:00:00,
2013-09-28 11:44:00,63.0,58.0,30.30,NNE,30,8.0,9.0,81,-99.99,,,-99.99,,2013-09-28 15:44:00,
2013-09-28 11:54:00,63.0,58.0,30.30,NNE,30,8.0,9.0,81,-99.99,,,-99.99,,2013-09-28 15:54:00,
2013-09-28 12:00:00,65.0,57.0,30.30,NE,40,7.0,9.0,76,-99.99,,,-99.99,,2013-09-28 16:00:00,
2013-09-28 12:43:00,65.0,57.0,30.30,NE,40,7.0,9.0,76,-99.99,,,-99.99,,2013-09-28 16:43:00,
2013-09-28 12:54:00,65.0,57.0,30.30,NE,40,7.0,9.0,76,-99.99,,,-99.99,,2013-09-28 16:54:00,
2013-09-28 13:00:00,67.0,54.0,30.28,NE,50,9.0,9.0,62,-99.99,,,-99.99,,2013-09-28 17:00:00,
2013-09-28 13:42:00,67.0,54.0,30.28,NE,50,9.0,9.0,62,-99.99,,,-99.99,,2013-09-28 17:42:00,
2013-09-28 13:52:00,67.0,54.0,30.28,NE,50,9.0,9.0,62,-99.99,,,-99.99,,2013-09-28 17:52:00,
2013-09-28 14:00:00,67.0,56.0,30.27,NE,50,8.0,10.0,67,-99.99,,,-99.99,,2013-09-28 18:00:00,
2013-09-28 14:42:00,67.0,56.0,30.27,NE,50,8.0,10.0,67,-99.99,,,-99.99,,2013-09-28 18:42:00,
2013-09-28 14:52:00,67.0,56.0,30.27,NE,50,8.0,10.0,67,-99.99,,,-99.99,,2013-09-28 18:52:00,
2013-09-28 15:00:00,68.0,55.0,30.26,NE,50,9.0,10.0,64,-99.99,,,-99.99,,2013-09-28 19:00:00,
2013-09-28 15:42:00,68.0,55.0,30.26,NE,50,9.0,10.0,64,-99.99,,,-99.99,,2013-09-28 19:42:00,
2013-09-28 15:52:00,68.0,55.0,30.26,NE,50,9.0,10.0,64,-99.99,,,-99.99,,2013-09-28 19:52:00,
2013-09-28 16:00:00,64.0,58.0,30.26,SE,130,9.0,10.0,81,-99.99,,,-99.99,,2013-09-28 20:00:00,
2013-09-28 16:43:00,64.0,58.0,30.26,SE,130,9.0,10.0,81,-99.99,,,-99.99,,2013-09-28 20:43:00,
2013-09-28 16:52:00,64.0,58.0,30.26,SE,130,9.0,10.0,81,-99.99,,,-99.99,,2013-09-28 20:52:00,
2013-09-28 17:00:00,63.0,54.0,30.26,SE,130,10.0,10.0,72,-99.99,,,-99.99,,2013-09-28 21:00:00,
2013-09-28 17:44:00,63.0,54.0,30.26,SE,130,10.0,10.0,72,-99.99,,,-99.99,,2013-09-28 21:44:00,
2013-09-28 17:55:00,63.0,54.0,30.26,SE,130,10.0,10.0,72,-99.99,,,-99.99,,2013-09-28 21:55:00,
2013-09-28 18:00:00,64.0,55.0,30.26,East,80,13.0,14.0,72,-99.99,,,-99.99,,2013-09-28 22:00:00,
2013-09-28 18:43:00,64.0,55.0,30.26,East,80,13.0,14.0,72,-99.99,,,-99.99,,2013-09-28 22:43:00,
2013-09-28 18:53:00,64.0,55.0,30.26,East,80,13.0,14.0,72,-99.99,,,-99.99,,2013-09-28 22:53:00,
2013-09-28 19:00:00,63.0,51.0,30.26,East,80,14.0,15.0,65,-99.99,,,-99.99,,2013-09-28 23:00:00,
2013-09-28 19:42:00,63.0,51.0,30.26,East,80,14.0,15.0,65,-99.99,,,-99.99,,2013-09-28 23:42:00,
2013-09-28 19:52:00,63.0,51.0,30.26,East,80,14.0,15.0,65,-99.99,,,-99.99,,2013-09-28 23:52:00,
2013-09-28 20:00:00,62.0,49.0,30.26,East,90,15.0,17.0,63,-99.99,,,-99.99,,2013-09-29 00:00:00,
2013-09-28 20:43:00,62.0,49.0,30.26,East,90,15.0,17.0,63,-99.99,,,-99.99,,2013-09-29 00:43:00,
2013-09-28 20:52:00,62.0,49.0,30.26,East,90,15.0,17.0,63,-99.99,,,-99.99,,2013-09-29 00:52:00,
2013-09-28 21:00:00,61.0,49.0,30.26,East,100,13.0,15.0,65,-99.99,,,-99.99,,2013-09-29 01:00:00,
2013-09-28 21:43:00,61.0,49.0,30.26,East,100,13.0,15.0,65,-99.99,,,-99.99,,2013-09-29 01:43:00,
2013-09-28 21:52:00,61.0,49.0,30.26,East,100,13.0,15.0,65,-99.99,,,-99.99,,2013-09-29 01:52:00,
2013-09-28 22:00:00,60.0,49.0,30.26,East,100,14.0,15.0,67,-99.99,,,-99.99,,2013-09-29 02:00:00,
2013-09-28 22:43:00,60.0,49.0,30.26,East,100,14.0,15.0,67,-99.99,,,-99.99,,2013-09-29 02:43:00,
2013-09-28 22:53:00,60.0,49.0,30.26,East,100,14.0,15.0,67,-99.99,,,-99.99,,2013-09-29 02:53:00,
2013-09-28 23:00:00,-999.0,-99.9,-100.00,East,100,9.0,10.0,-999,-99.99,,,-99.99,,2013-09-29 03:00:00,
2013-09-28 23:44:00,60.0,48.0,30.26,East,100,9.0,10.0,62,-99.99,,,-99.99,,2013-09-29 03:44:00,
2013-09-28 23:55:00,60.0,48.0,30.26,East,100,9.0,10.0,62,-99.99,,,-99.99,,2013-09-29 03:55:00,